map of EDL home
Great Circle Mapper logo
EDL - Airport
Location
City:  Eldoret, Kenya
Name:Eldoret International Airport
ICAO / IATA:HKEL / EDL

Details
Type:Airport (Aerodrome, Airfield)
Use:International (customs port of entry)
Latitude:024'16"N (0.404458)
Longitude:3514'20"E (35.238928)
Datum:WGS 1984
Elevation:6941 ft (2116 m)
Variation:1.21E (WMM2015 magnetic declination)
0.05 annual change
Runways:1
Longest:11483 × 148 ft (3500 × 45 m), paved

Time
Time Zone:UTC+3
Local Time:

Weather
METAR:HKEL 120200Z 00000KT CAVOK 14/13
TAF:HKEL 112300Z 1200/1300 07005KT 9999 FEW016 BKN080
TEMPO 1200/1206 00000KT -RA FEW008 BKN016 BKN080
BECMG 1207/1210 06010KT FEW024CB SCT025
TEMPO 1212/1218 -TSRA FEW019CB SCT020 BKN080
BECMG 1220/1223 CAVOK

Related Locations
Nearby:
Farthest:NHV: 11779 mi / 18956 km
Nuku Hiva, Marquesas Islands, PF

Find:

   beyond  
but within

Other Information
Maps:
NOTAMs:
Links:
Sources:

  
flag of Kenya   

Sectional Chart

Flight Planning
at skyvector.com

Satellite Image

Google Maps Satellite view

 

Copyright © 2004-2016 Karl L. Swartz. All rights reserved.
The Great Circle Mapper name and logo are trademarks of the Great Circle Mapper.
All other trademarks mentioned herein belong to their respective owners.
Please see credits for attibutions and further copyright information.

  Follow gcmap on Facebook Follow gcmap on Twitter Follow gcmap on Google+ GCmap on LinkedIn

hCard Microformat

Geo Microformat